Home   Weather   Einbeck   Past weeks

Flag for Germany Past Weather in Einbeck, Lower Saxony, Germany — Yesterday and Last 2 Weeks

41 °F


Feels Like: 35 °F
Forecast: 35 / 50 °F
Wind: 9 mph from Northeast

Location: Hannover

Current Time: Oct 22, 2016 at 5:33:40 AM

Latest Report: Oct 22, 2016 at 4:50 AM

Visibility: 4 mi

Pressure: 29.89 "Hg

Humidity: 100%

Dew Point: 41 °F

Location of EinbeckLocation

Past Weather in Einbeck — Graph


Einbeck Temperature Yesterday

Maximum temperature yesterday: 46 °F (at 2:20 PM)
Minimum temperature yesterday: 41 °F (at 3:50 AM)
Average temperature yesterday: 44 °F

High & Low Weather Summary for the Past Weeks

High63 °F (Oct 16, 1:20 PM)100% (Oct 8, 1:50 AM)30.27 "Hg (Oct 8, 1:50 AM)
Low32 °F (Oct 9, 5:20 AM)52% (Oct 16, 3:20 PM)29.74 "Hg (Oct 15, 5:20 AM)
Average48 °F88%30.08 "Hg
* Reported Oct 7 4:20 AM — Oct 22 4:20 AM, Einbeck, Weather by CustomWeather, © 2016

Note: Actual official high and low records may vary slightly from our data, if they occured in-between our weather recording intervals... More about our weather records


Einbeck Weather History for the Previous 24 Hours

Scroll right to see more
Time TempWeatherWind HumidityBarometerVisibility
4:20 AM
Sat, Oct 22
41 °FPassing clouds.5 mph100%29.89 "HgN/A
3:50 AM41 °FMostly cloudy.6 mph100%29.89 "HgN/A
3:20 AM41 °FMostly cloudy.7 mph100%29.89 "Hg6 mi
2:50 AM41 °FPartly cloudy.7 mph100%29.89 "HgN/A
2:20 AM43 °FMostly cloudy.5 mph93%29.89 "HgN/A
1:50 AM43 °FPartly cloudy.6 mph93%29.89 "HgN/A
1:20 AM43 °FPassing clouds.7 mph93%29.89 "HgN/A
12:50 AM43 °FPassing clouds.8 mph100%29.89 "HgN/A
12:20 AM43 °FDrizzle. Mostly cloudy.6 mph100%29.89 "Hg6 mi
11:50 PM
Fri, Oct 21
45 °FPassing clouds.6 mph93%29.89 "Hg6 mi
11:20 PM45 °FPartly cloudy.3 mph100%29.89 "Hg4 mi
10:50 PM45 °FPassing clouds.1 mph100%29.89 "Hg4 mi
10:20 PM45 °FLight rain. Passing clouds.2 mph100%29.89 "Hg4 mi
9:50 PM45 °FDrizzle. Mostly cloudy.3 mph100%29.89 "Hg4 mi
9:20 PM45 °FMostly cloudy.5 mph93%29.89 "Hg4 mi
8:50 PM46 °FMostly cloudy.5 mph93%29.89 "Hg4 mi
8:20 PM45 °FMostly cloudy.3 mph100%29.89 "Hg4 mi
7:50 PM46 °FDrizzle. Mostly cloudy.3 mph93%29.89 "Hg4 mi
7:20 PM46 °FDrizzle. Fog.6 mph93%29.89 "Hg2 mi
6:50 PM46 °FLight rain. Passing clouds.5 mph93%29.89 "Hg4 mi
6:20 PM46 °FLight rain. Fog.5 mph93%29.89 "Hg3 mi
5:50 PM46 °FLight rain. Fog.5 mph93%29.89 "Hg3 mi
5:20 PM46 °FLight rain. Fog.5 mph93%29.89 "Hg3 mi
4:50 PM46 °FLight rain. Fog.7 mph93%29.89 "Hg3 mi
4:20 PM46 °FLight rain. Fog.7 mph93%29.89 "Hg3 mi
3:50 PM46 °FLight rain. Fog.7 mph93%29.89 "Hg3 mi
3:20 PM46 °FLight rain. Fog.7 mph93%29.89 "Hg3 mi
2:50 PM46 °FLight rain. Fog.8 mph93%29.89 "Hg3 mi
2:20 PM46 °FLight rain. Fog.7 mph93%29.89 "Hg3 mi
1:50 PM45 °FDrizzle. Fog.7 mph100%29.89 "Hg3 mi
1:20 PM45 °FDrizzle. Fog.7 mph100%29.92 "Hg2 mi
12:50 PM45 °FRain. Fog.7 mph93%29.92 "Hg2 mi
12:20 PM45 °FDrizzle. Fog.7 mph93%29.92 "Hg2 mi
11:50 AM45 °FDrizzle. Fog.7 mph100%29.92 "Hg1 mi
11:20 AM45 °FDrizzle. Fog.8 mph93%29.92 "Hg1 mi
10:50 AM45 °FDrizzle. Fog.9 mph93%29.92 "Hg0 mi
10:20 AM43 °FDrizzle. Fog.7 mph100%29.92 "Hg1 mi
9:50 AM43 °FFog.7 mph100%29.92 "Hg1 mi
9:20 AM43 °FFog.7 mph100%29.92 "Hg1 mi
8:50 AM43 °FFog.9 mph100%29.92 "Hg1 mi
8:20 AM43 °FFog.9 mph100%29.92 "Hg0 mi
7:50 AM43 °FFog.8 mph100%29.92 "Hg1 mi
7:20 AM43 °FDrizzle. Fog.7 mph100%29.92 "Hg1 mi
6:50 AM43 °FFog.9 mph100%29.92 "Hg1 mi
6:20 AM43 °FFog.8 mph100%29.92 "Hg1 mi
5:50 AM43 °FFog.7 mph100%29.92 "Hg1 mi
5:20 AM43 °FFog.6 mph93%29.92 "Hg1 mi
Weather by CustomWeather, © 2016

See weather overviewHow to use our weather pages